Theta_e
295 294 293 293 294 294 294 294 295 298 298 299 299 299 299 299 299 299 299 299 298 299 301 301 300 301 302 303 307 309 310 310 307 309 312 310 310 310 309 310 310 312 313
291 290 289 290 290 290 290 291 292 292 294 295 295 296 296 297 297 296 295 294 294 293 294 295 295 297 296 297 299 299 298 299 299 299 301 301 302 303 304 305 308 309 310
288 287 286 285 285 285 286 287 289 290 290 291 291 292 292 293 294 293 292 291 291 291 292 292 293 294 293 294 293 293 294 296 296 296 295 296 297 298 297 298 299 300 302
284 282 282 282 282 283 284 285 286 287 287 287 288 288 289 291 291 290 289 289 288 289 290 291 292 292 294 295 294 294 295 294 294 293 293 293 294 295 295 293 293 294 297
280 279 279 280 280 281 281 282 283 283 283 284 285 286 286 287 289 288 287 287 286 286 287 289 291 291 290 292 292 292 292 292 290 289 289 290 289 289 289 292 291 292 292
277 276 277 278 278 279 279 279 280 279 280 281 282 282 283 285 288 289 288 286 286 285 285 286 288 287 289 291 292 292 291 289 287 287 287 286 286 287 289 289 288 287 286
275 275 275 276 276 276 277 278 277 277 278 279 280 280 281 283 287 287 287 284 285 286 285 284 284 285 285 287 289 289 288 290 290 288 285 285 284 286 288 287 286 286 286
273 273 274 274 274 275 275 275 275 276 277 277 278 279 281 282 285 285 285 284 283 284 283 282 282 283 285 284 284 284 284 285 285 285 285 285 286 287 287 287 286 287 288
272 272 272 273 274 274 273 274 275 275 276 277 278 279 278 280 282 282 282 281 280 280 281 282 282 282 283 285 282 280 280 282 285 286 287 287 288 289 289 287 284 285 285
270 271 272 273 274 272 273 273 275 275 276 276 277 277 278 277 279 280 280 278 277 277 279 279 280 280 282 282 281 280 278 280 281 281 282 283 284 284 287 287 285 284 285
269 270 270 270 271 271 271 272 273 273 273 273 274 275 275 276 276 279 279 277 276 277 277 277 278 279 281 282 282 279 279 281 281 280 279 279 280 282 283 284 286 286 285
267 267 267 267 268 269 268 269 270 270 270 270 271 271 273 274 275 276 277 277 278 276 275 276 277 279 280 281 280 281 282 281 277 276 275 276 278 280 282 283 284 285 286
265 264 265 266 266 267 267 267 267 268 268 268 268 268 269 271 272 274 274 276 276 274 275 276 278 278 278 277 278 279 278 276 275 273 273 276 279 281 284 281 278 281 283
261 263 264 264 264 265 266 266 266 266 266 267 266 266 267 268 269 270 272 273 274 274 274 274 275 275 275 275 273 274 275 274 273 272 273 275 278 281 281 282 281 281 281
261 262 262 263 263 263 264 264 265 266 267 266 266 268 266 266 269 273 273 272 272 273 273 271 269 268 267 268 268 269 270 270 270 272 273 274 273 273 274 277 278 279 279
260 260 261 261 261 262 262 262 265 267 269 270 270 269 269 270 272 273 273 274 274 275 270 265 264 264 264 265 265 266 267 267 268 269 270 270 270 270 270 271 274 274 275
258 259 259 260 260 259 260 259 258 261 266 267 268 269 269 270 271 271 272 272 273 272 263 262 262 262 262 263 263 263 263 265 266 266 266 267 267 268 268 268 269 270 271
256 257 257 258 258 258 258 258 258 256 256 258 262 265 267 268 269 269 271 270 263 263 261 260 260 260 261 261 262 262 262 262 263 263 263 264 264 265 265 265 266 267 268
255 256 256 256 256 256 256 256 257 256 256 256 257 260 261 265 266 268 269 259 259 259 260 260 260 261 261 261 261 261 261 261 261 261 261 261 261 262 262 263 265 266 267
252 253 254 253 254 254 255 255 255 254 255 255 255 256 257 258 259 261 261 260 259 259 259 259 259 260 260 260 260 260 260 259 259 260 260 260 260 260 260 261 262 263 264
250 250 252 252 252 253 253 253 254 254 254 254 255 257 264 262 260 259 258 258 258 258 259 259 259 260 260 260 260 260 259 259 259 259 259 259 259 258 259 260 261 262 262
248 249 248 250 253 253 252 253 253 253 254 254 255 256 263 258 257 256 257 257 258 259 260 260 260 260 261 260 260 260 259 259 259 259 259 259 259 258 259 258 259 259 260
251 251 251 251 252 251 251 252 252 252 253 253 254 255 255 255 256 256 257 258 259 260 261 261 261 261 262 262 262 261 260 260 260 260 259 258 258 258 258 257 257 258 259
248 249 251 251 251 251 251 251 252 252 253 253 253 254 255 255 256 256 257 258 259 260 261 261 262 262 262 262 263 263 262 262 262 261 260 259 258 258 258 257 257 257 257
248 249 249 250 250 250 250 251 252 252 252 253 253 254 254 255 255 256 257 258 259 259 260 261 262 262 263 263 263 263 263 264 263 263 262 260 258 258 257 257 257 257 257
250 250 250 250 250 251 251 251 251 252 252 252 253 253 254 254 255 255 256 257 258 259 260 261 262 262 262 263 264 264 264 265 264 263 262 261 259 258 258 257 257 257 256
Wind_Speed
8 8 9 8 9 8 8 8 7 7 7 6 5 5 5 5 5 5 5 5 5 5 5 5 5 5 4 4 4 4 7 6 11 11 7 3 4 7 6 6 7 9 9
7 9 10 10 10 11 10 9 9 8 7 7 7 6 6 6 6 5 5 5 5 5 6 6 6 5 5 4 3 5 5 5 5 15 8 4 4 4 7 11 8 6 7
10 11 11 11 10 10 10 10 9 9 8 8 8 7 6 6 5 5 5 5 5 5 5 5 6 6 5 4 3 4 3 4 4 7 11 4 5 5 7 7 8 8 7
11 12 11 11 10 9 9 9 9 9 9 9 8 7 7 6 5 5 5 5 5 5 6 5 6 5 6 8 7 8 6 7 6 8 9 10 9 7 9 8 10 6 10
11 11 10 9 9 8 9 9 8 9 8 8 7 7 7 6 6 6 5 5 5 5 5 6 6 7 10 10 5 5 8 7 7 8 7 9 9 9 10 9 11 11 11
9 9 9 9 9 9 8 7 7 8 8 7 7 7 7 5 13 12 8 4 4 3 4 5 5 6 6 11 11 12 10 9 10 8 8 9 9 7 6 9 10 11 8
10 10 10 9 9 9 8 8 9 9 7 7 7 7 7 6 14 14 13 5 5 5 5 4 5 4 5 5 7 11 10 13 14 10 11 10 13 8 8 11 13 11 12
10 10 10 9 9 9 9 9 8 8 7 7 7 7 6 6 14 16 16 5 4 5 4 4 6 6 6 6 6 5 6 6 8 7 11 11 12 9 9 11 13 13 10
10 9 10 11 9 9 10 10 9 8 7 7 7 7 8 8 15 17 14 9 8 7 7 6 5 7 10 14 10 9 9 8 9 16 20 23 24 24 18 10 11 9 10
10 9 8 10 10 9 9 10 9 8 9 8 9 7 7 7 14 17 15 8 9 8 7 8 12 8 15 17 11 11 12 11 11 12 11 14 15 14 21 14 8 10 8
10 9 9 10 9 10 9 8 9 9 9 9 10 9 10 9 11 19 20 10 9 9 8 8 7 18 22 22 23 12 13 15 16 12 11 10 10 9 8 9 10 9 8
8 8 8 8 8 8 9 8 8 8 7 7 8 7 7 10 14 16 20 19 18 11 11 9 9 21 27 27 21 22 23 21 10 10 10 10 9 8 7 9 10 9 9
6 6 6 7 8 9 8 9 7 7 6 7 7 7 8 8 8 18 19 21 20 14 11 18 26 25 25 18 21 24 20 9 9 10 10 10 10 8 10 6 7 10 12
5 7 7 7 9 8 6 6 6 6 7 7 8 8 8 8 8 9 9 10 14 13 16 12 17 21 21 19 12 11 8 9 10 11 11 11 11 8 7 8 9 10 11
6 6 7 6 7 7 6 6 7 7 9 8 7 8 8 8 9 19 18 12 11 15 18 9 8 9 9 9 8 8 8 9 10 11 11 8 8 9 10 8 9 10 12
6 6 6 6 6 6 6 7 11 14 16 16 17 12 8 18 22 24 25 25 26 27 11 8 9 10 10 10 9 9 8 10 10 10 10 11 11 10 10 10 9 11 13
7 7 6 6 6 6 6 6 11 10 16 16 15 19 19 19 22 24 25 25 25 22 7 9 10 10 10 10 10 10 10 9 10 10 10 11 11 11 12 10 9 10 13
5 6 5 5 5 5 6 6 6 7 13 13 11 17 19 20 22 23 23 20 9 10 8 10 11 11 11 11 11 11 10 10 10 10 11 10 10 11 11 12 11 12 12
4 4 4 4 5 6 6 6 6 6 7 9 12 15 9 22 24 20 19 4 8 9 10 10 11 11 12 12 12 12 12 11 11 11 11 11 10 11 12 12 12 15 14
3 6 6 5 5 5 5 6 6 6 7 7 9 10 11 13 11 12 10 9 9 10 10 11 12 12 13 12 12 12 11 12 12 11 11 10 10 10 12 13 12 13 12
3 4 6 5 4 5 6 6 6 7 8 9 10 10 22 14 12 11 11 11 11 12 13 12 12 13 13 12 12 12 12 12 12 12 11 11 11 11 11 12 12 12 12
3 3 3 4 6 7 7 7 8 8 9 10 10 11 22 10 10 10 11 11 12 13 12 13 13 14 14 14 14 14 14 14 13 12 12 12 12 12 12 12 12 12 12
4 5 5 6 6 8 8 7 7 8 9 10 10 10 10 9 10 11 12 12 12 14 14 13 14 15 15 15 14 14 14 15 14 12 13 12 12 12 12 13 12 12 12
4 5 7 7 6 7 7 8 8 10 10 10 10 10 10 11 12 14 14 13 13 15 15 14 15 20 18 18 15 15 15 16 14 14 18 14 13 14 13 13 13 14 13
5 5 6 7 7 7 8 8 9 9 9 10 10 10 11 11 12 13 13 13 14 15 18 17 16 21 24 27 25 27 26 29 24 22 14 16 18 19 15 13 14 13 14
6 6 7 6 7 7 8 9 9 9 9 10 10 11 11 12 12 13 13 14 15 16 20 17 19 27 29 24 27 29 30 30 26 27 18 16 16 15 13 15 19 14 15
Wind_Direction
54 52 53 44 42 44 43 31 24 25 19 22 15 18 23 23 17 21 15 21 5 347 348 346 327 342 329 331 320 304 294 296 280 286 295 310 290 286 296 284 281 278 277
63 60 52 46 40 39 30 22 19 17 12 13 14 17 15 16 17 30 21 13 9 356 344 341 330 332 320 320 332 336 319 317 301 292 293 291 287 298 295 295 294 296 287
52 51 44 38 39 35 26 17 15 13 12 12 15 15 10 9 23 25 24 10 1 347 347 336 327 333 324 323 317 309 288 293 280 286 295 300 296 308 316 308 299 299 294
52 49 44 33 30 28 24 22 18 15 15 11 9 8 8 11 27 15 11 6 359 346 336 327 321 305 304 317 311 300 299 298 297 292 293 300 304 309 305 309 310 309 310
53 47 35 26 27 25 24 19 17 18 11 4 5 10 8 10 7 360 2 356 346 336 329 325 318 328 303 299 294 314 299 297 296 294 295 296 300 311 316 316 307 318 311
51 52 32 20 20 17 15 10 15 11 5 360 8 1 357 354 358 354 356 325 307 301 313 319 319 315 309 311 295 286 286 287 282 281 282 284 289 301 305 302 307 317 321
37 28 27 20 23 16 9 12 9 3 356 356 355 356 348 336 358 351 346 325 323 323 326 336 323 308 304 302 308 305 292 283 270 277 277 271 283 284 295 298 294 292 285
32 24 16 18 18 12 11 10 4 356 353 354 345 343 343 354 1 3 356 334 323 326 331 323 312 309 313 317 302 293 299 293 284 275 270 279 276 280 273 286 287 286 283
31 24 10 358 14 18 8 1 358 351 352 357 347 357 355 3 359 359 357 0 350 342 322 316 315 318 317 330 323 312 297 287 286 289 288 287 285 283 274 277 275 275 283
16 10 14 4 352 15 5 357 349 344 347 345 344 350 350 350 349 352 357 353 336 332 329 329 319 313 317 317 310 310 303 306 302 295 290 287 283 274 272 257 258 261 274
2 3 2 9 355 358 5 356 350 353 347 354 346 347 343 351 341 341 342 341 331 320 322 317 320 322 312 309 310 302 298 301 302 301 294 289 284 276 263 252 242 237 252
357 5 359 359 360 1 357 358 356 352 349 352 346 338 344 342 338 335 334 330 322 323 315 315 314 305 307 306 306 301 304 307 300 293 289 283 279 274 263 258 251 236 232
346 352 355 356 4 3 358 357 351 343 349 349 343 337 335 333 331 333 329 323 327 319 313 309 312 311 309 314 306 302 303 294 291 285 288 287 282 281 281 263 267 263 258
339 351 357 5 1 4 355 347 338 339 347 340 338 333 323 330 333 317 313 319 315 318 312 305 311 319 314 310 311 306 297 291 290 290 288 282 278 288 300 304 291 286 274
348 358 360 3 355 351 345 335 334 331 323 331 319 313 321 321 315 319 320 321 317 309 315 320 318 317 309 300 300 301 297 293 287 287 281 295 304 300 288 293 297 291 278
5 0 1 347 347 343 336 324 317 317 322 318 316 319 317 317 318 318 320 317 315 315 317 322 310 303 300 302 301 298 292 287 284 290 297 297 294 294 294 287 284 289 287
8 352 340 339 332 334 328 321 322 322 319 320 323 326 323 316 321 318 315 314 313 320 315 303 295 294 295 294 292 288 286 283 290 287 285 287 290 288 290 285 283 281 279
344 315 310 312 313 312 315 312 308 312 320 319 317 317 317 323 319 315 312 317 315 306 292 287 288 291 290 289 286 285 285 286 281 281 280 281 283 284 285 283 277 271 271
317 304 312 296 298 301 302 297 293 291 287 288 307 316 318 322 319 313 318 307 291 291 290 287 284 283 281 280 280 279 277 278 277 278 277 274 274 273 274 274 275 277 282
278 291 307 303 299 289 284 282 285 284 296 301 301 297 313 319 314 317 312 304 294 288 288 286 285 282 279 277 276 275 274 273 271 269 268 269 270 270 274 277 278 280 279
282 282 267 279 286 299 302 300 296 290 283 282 282 288 294 302 305 297 297 293 290 288 288 286 283 279 276 275 273 271 269 267 265 264 262 262 263 266 268 271 276 280 288
250 276 286 292 292 284 277 276 280 278 278 278 283 285 299 298 287 286 284 282 282 280 280 281 280 278 277 275 274 271 268 266 262 259 258 256 256 258 262 266 268 270 272
260 266 271 267 264 274 277 269 267 269 274 278 284 289 293 289 287 286 286 286 286 286 286 283 279 277 275 272 268 266 265 262 259 255 254 252 251 251 252 256 260 263 265
248 255 270 275 275 272 273 279 276 273 276 280 282 281 283 284 285 286 285 287 286 286 285 282 280 278 280 276 272 267 262 259 256 252 249 248 248 250 248 252 254 257 260
242 254 257 265 268 272 276 272 274 276 277 278 280 279 281 282 283 284 285 286 286 286 287 287 284 283 281 281 275 271 265 262 256 251 246 240 243 245 245 247 249 253 255
244 243 251 258 263 264 266 273 275 276 275 277 278 279 280 282 283 285 287 288 288 289 293 290 286 288 287 285 280 273 270 267 260 255 246 243 244 244 242 243 247 249 253